Regional Weather Roundup
Issued by NWS

Home | Current Version | Previous Version | Text Only | Print | Product List | Glossary On
Versions: 1 2 3 4 5 6 7 8 9 10 11 12 13 14 15 16 17 18 19 20 21 22 23 24 25 26 27 28 29 30 31 32 33 34 35 36 37 38 39 40 41 42 43 44 45 46 47 48 49 50
000
ASUS43 KLSX 250907
RWRMO

WEATHER SUMMARY FOR MISSOURI
NATIONAL WEATHER SERVICE SPRINGFIELD MO
400 AM CDT MON SEP 25 2017

NOTE: "FAIR" INDICATES FEW OR NO CLOUDS BELOW 12,000 FEET WITH NO
       SIGNIFICANT WEATHER AND/OR OBSTRUCTIONS TO VISIBILITY.
       CURRENT SKY AND/OR WEATHER CONDITIONS ARE NOT AVAILABLE FOR
       CHILLICOTHE AND FARMINGTON.

MOZ001>031-035>038-043-044-053-054-251000-
...NORTHERN AND WESTERN MISSOURI...

CITY           SKY/WX    TMP DP  RH WIND       PRES   REMARKS
KANSAS CTY INT PTCLDY    68  65  90 S9        29.92F
KANSAS C DTWN  PTCLDY    75  65  70 S7        29.92S
LEE`S SUMMIT   PTCLDY    72  64  76 S9        29.94S
ST JOSEPH      PTCLDY    71  66  84 SE3       29.92S
CHILLICOTHE      N/A     67  66  97 CALM      29.95S
KIRKSVILLE     CLEAR     64  61  90 CALM      29.97R

$$
MOZ066>068-077>081-088>096-101>105-251000-
...SOUTHWEST MISSOURI...

CITY           SKY/WX    TMP DP  RH WIND       PRES   REMARKS
SPRINGFIELD    CLEAR     68  65  90 S9        29.97S
JOPLIN         CLEAR     69  66  90 SE8       29.95S
BRANSON        CLEAR     64  64 100 CALM      30.00S

$$
MOZ032>034-039>042-045>050-055>058-069>072-251000-
...CENTRAL MISSOURI...

CITY           SKY/WX    TMP DP  RH WIND       PRES   REMARKS
COLUMBIA       CLEAR     69  65  86 SE7       29.97S
JEFFERSON CITY CLEAR     68  64  87 CALM      29.96S
ROLLA          CLEAR     66  62  87 S8        30.00R
SEDALIA        CLEAR     70  67  90 S7        29.97S
WHITEMAN AFB   CLEAR     66  66 100 S6        29.94S
WARRENSBURG    PTCLDY    64  63  94 SE5       29.94S
OSAGE BEACH    CLEAR     67  64  90 SE3       29.98S

$$
MOZ051-052-059>065-251000-
...EAST CENTRAL MISSOURI...

CITY           SKY/WX    TMP DP  RH WIND       PRES   REMARKS
ST LOUIS INTL  CLEAR     72  64  76 CALM      29.98S
SPIRIT OF STL  CLEAR     67  66  97 CALM      29.96S
ST CHARLES     CLEAR     65  63  93 SE5       29.97S

$$
MOZ072>076-082>087-097>100-106>115-251000-
...SOUTH CENTRAL AND SOUTHEAST MISSOURI...

CITY           SKY/WX    TMP DP  RH WIND       PRES   REMARKS
CAPE GIRARDEAU CLEAR     62  60  93 CALM      29.99R
FARMINGTON     CLEAR     63  62  97 CALM      30.01S
POPLAR BLUFF   CLEAR     64  64 100 CALM      29.98S
WEST PLAINS    CLEAR     63  61  93 CALM      30.02R

$$



USA.gov is the U.S. government's official web portal to all federal, state and local government web resources and services.